FW4683 Weather Reports


Display with metric or nautical units.
time (UTC)temp
F
wind
direction
speed
MPH
gust
MPH
rain 1hr
in
rain 24hr
in
rain mn
in
humidity
%
barometer
mb
20260505173504 73 96 14.0 20.0 0.00 0.00 0.00 42 1014.9
20260505173100 73 96 12.0 20.0 0.00 0.00 0.00 45 1014.9
20260505172600 72 96 7.0 17.0 0.00 0.00 0.00 46 1015.0
20260505172102 72 96 10.0 18.0 0.00 0.00 0.00 47 1015.0
20260505171559 73 96 12.0 18.0 0.00 0.00 0.00 47 1015.0
20260505171102 73 96 8.0 19.0 0.00 0.00 0.00 47 1015.1
20260505170558 73 96 7.0 16.0 0.00 0.00 0.00 47 1015.0
20260505170057 72 96 6.0 17.0 0.00 0.00 0.00 49 1015.0
20260505165557 72 96 9.0 16.0 0.00 0.00 0.00 49 1015.0
20260505165057 72 96 10.0 16.0 0.00 0.00 0.00 49 1015.1
20260505164604 71 96 7.0 17.0 0.00 0.00 0.00 52 1015.0
20260505164055 71 96 10.0 17.0 0.00 0.00 0.00 51 1015.2
20260505163554 71 96 6.0 14.0 0.00 0.00 0.00 53 1015.3
20260505163053 70 96 9.0 18.0 0.00 0.00 0.00 53 1015.3
20260505162553 70 96 9.0 18.0 0.00 0.00 0.00 54 1015.2
20260505162052 70 96 9.0 16.0 0.00 0.00 0.00 54 1015.4
20260505161602 70 96 7.0 17.0 0.00 0.00 0.00 54 1015.4
20260505161052 69 96 10.0 17.0 0.00 0.00 0.00 53 1015.5
20260505160552 70 96 12.0 16.0 0.00 0.00 0.00 51 1015.4
20260505153049 69 96 6.0 13.0 0.00 0.00 0.00 55 1015.8
20260505152546 68 96 9.0 13.0 0.00 0.00 0.00 55 1016.0
20260505152045 68 96 7.0 16.0 0.00 0.00 0.00 56 1016.0
20260505151543 68 96 11.0 16.0 0.00 0.00 0.00 55 1015.8
20260505151042 68 96 6.0 13.0 0.00 0.00 0.00 57 1015.9
20260505150541 67 96 7.0 16.0 0.00 0.00 0.00 57 1015.8
20260505140534 65 96 2.0 7.0 0.00 0.00 0.00 59 1015.8
20260505125024 58 96 0.0 1.0 0.00 0.00 0.00 70 1015.7
20260505124531 57 96 0.0 1.0 0.00 0.00 0.00 70 1015.8
20260505124023 57 96 0.0 4.0 0.00 0.00 0.00 74 1015.9
20260505123524 56 96 2.0 4.0 0.00 0.00 0.00 76 1015.8
20260505123028 56 96 2.0 3.0 0.00 0.00 0.00 75 1015.8
20260505122524 56 96 1.0 3.0 0.00 0.00 0.00 75 1015.5
20260505122020 55 96 0.0 2.0 0.00 0.00 0.00 76 1015.3
20260505121527 55 96 1.0 2.0 0.00 0.00 0.00 75 1015.4
20260505121020 55 96 0.0 2.0 0.00 0.00 0.00 75 1015.5
20260505120522 55 96 0.0 0.0 0.00 0.00 0.00 76 1015.5
20260505120032 54 96 0.0 0.0 0.00 0.00 0.00 77 1015.3
20260505115523 53 96 0.0 0.0 0.00 0.00 0.00 79 1015.4
20260505115023 53 96 0.0 0.0 0.00 0.00 0.00 79 1015.4
20260505114521 52 96 0.0 0.0 0.00 0.00 0.00 80 1015.5
20260505114021 52 96 0.0 0.0 0.00 0.00 0.00 81 1015.3
20260505113518 51 96 0.0 0.0 0.00 0.00 0.00 82 1015.2
20260505113017 50 96 0.0 0.0 0.00 0.00 0.00 83 1015.2
20260505112518 50 96 0.0 1.0 0.00 0.00 0.00 84 1015.2
20260505112017 49 96 0.0 2.0 0.00 0.00 0.00 85 1015.1
20260505111519 49 96 0.0 3.0 0.00 0.00 0.00 85 1015.2
20260505111018 48 96 1.0 4.0 0.00 0.00 0.00 85 1015.0
20260505110518 49 96 1.0 4.0 0.00 0.00 0.00 84 1015.1
20260505102012 50 96 0.0 3.0 0.00 0.00 0.00 82 1014.9
20260505101512 50 96 1.0 6.0 0.00 0.00 0.00 82 1015.0
20260505101110 50 96 3.0 8.0 0.00 0.00 0.00 81 1015.1
20260505100508 51 96 4.0 7.0 0.00 0.00 0.00 78 1015.0
20260505100007 54 96 2.0 4.0 0.00 0.00 0.00 73 1014.9
20260505095506 54 96 0.0 3.0 0.00 0.00 0.00 73 1014.7
20260505095007 54 96 0.0 3.0 0.00 0.00 0.00 73 1014.6
20260505094507 53 96 0.0 3.0 0.00 0.00 0.00 75 1014.6
20260505094007 52 96 0.0 1.0 0.00 0.00 0.00 77 1014.6
20260505093508 53 96 0.0 1.0 0.00 0.00 0.00 77 1014.6
20260505093006 52 96 0.0 1.0 0.00 0.00 0.00 78 1014.7
20260505092508 52 96 0.0 0.0 0.00 0.00 0.00 77 1014.8
20260505092005 53 96 0.0 0.0 0.00 0.00 0.00 76 1014.7
20260505091505 53 96 0.0 2.0 0.00 0.00 0.00 76 1014.7
20260505091005 53 96 0.0 3.0 0.00 0.00 0.00 76 1014.5
20260505090504 53 96 0.0 6.0 0.00 0.00 0.00 76 1014.5
20260505090010 53 96 3.0 6.0 0.00 0.00 0.00 75 1014.6
20260505085504 54 96 0.0 1.0 0.00 0.00 0.00 74 1014.4
20260505085004 54 96 0.0 1.0 0.00 0.00 0.00 74 1014.4
20260505084502 53 96 0.0 1.0 0.00 0.00 0.00 75 1014.3
20260505084003 53 96 0.0 2.0 0.00 0.00 0.00 76 1014.3
20260505083503 53 96 0.0 2.0 0.00 0.00 0.00 76 1014.2
20260505083004 53 96 0.0 2.0 0.00 0.00 0.00 75 1014.2
20260505082502 54 96 1.0 2.0 0.00 0.00 0.00 74 1014.3
20260505082002 54 96 0.0 1.0 0.00 0.00 0.00 74 1014.2
20260505081501 54 96 0.0 0.0 0.00 0.00 0.00 75 1014.3
20260505081004 54 96 0.0 0.0 0.00 0.00 0.00 76 1014.3
20260505080601 53 96 0.0 0.0 0.00 0.00 0.00 75 1014.3
20260505080501 54 96 0.0 0.0 0.00 0.00 0.00 75 1014.2
20260505075601 54 96 0.0 0.0 0.00 0.00 0.00 74 1014.1
20260505074601 54 96 0.0 1.0 0.00 0.00 0.00 75 1014.1
20260505074100 54 96 0.0 0.0 0.00 0.00 0.00 75 1014.1
20260505073600 54 96 0.0 1.0 0.00 0.00 0.00 74 1014.1
20260505073129 54 96 0.0 2.0 0.00 0.00 0.00 74 1014.2
20260505072600 54 96 0.0 3.0 0.00 0.00 0.00 74 1014.2
20260505072101 54 96 0.0 3.0 0.00 0.00 0.00 74 1014.1
20260505071602 55 96 0.0 1.0 0.00 0.00 0.00 73 1014.1
20260505071057 54 96 0.0 0.0 0.00 0.00 0.00 73 1014.1
20260505070557 54 96 0.0 1.0 0.00 0.00 0.00 73 1014.1
20260505065559 55 96 0.0 2.0 0.00 0.00 0.00 72 1014.2
20260505064556 56 96 2.0 3.0 0.00 0.00 0.00 70 1014.3
20260505064055 58 96 0.0 3.0 0.00 0.00 0.00 66 1014.3
20260505063555 58 96 1.0 3.0 0.00 0.00 0.00 64 1014.4
20260505063055 58 96 1.0 6.0 0.00 0.00 0.00 64 1014.3
20260505062555 58 96 2.0 6.0 0.00 0.00 0.00 64 1014.4
20260505062100 58 96 2.0 6.0 0.00 0.00 0.00 64 1014.4
20260505061554 58 96 1.0 4.0 0.00 0.00 0.00 64 1014.4
20260505061054 58 96 2.0 4.0 0.00 0.00 0.00 65 1014.5
20260505060554 57 96 1.0 3.0 0.00 0.00 0.00 67 1014.6
20260505060054 57 96 0.0 3.0 0.00 0.00 0.00 68 1014.6
20260505055556 58 96 1.0 3.0 0.00 0.00 0.00 67 1014.6
20260505054549 58 96 0.0 1.0 0.00 0.00 0.00 66 1014.6
20260505054049 58 96 0.0 2.0 0.00 0.00 0.00 65 1014.6
20260505053547 59 96 1.0 2.0 0.00 0.00 0.00 63 1014.7
20260505053045 60 96 0.0 2.0 0.00 0.00 0.00 61 1014.6
20260505052544 60 96 0.0 3.0 0.00 0.00 0.00 61 1014.6
20260505052044 60 96 0.0 3.0 0.00 0.00 0.00 60 1014.6
20260505051558 60 96 1.0 4.0 0.00 0.00 0.00 60 1014.6
20260505051045 61 96 1.0 4.0 0.00 0.00 0.00 59 1014.7
20260505050543 60 96 1.0 4.0 0.00 0.00 0.00 60 1014.6
20260505041542 60 96 0.0 1.0 0.00 0.00 0.00 62 1014.5
20260505041042 60 96 0.0 0.0 0.00 0.00 0.00 62 1014.5
20260505040542 61 96 0.0 0.0 0.00 0.00 0.00 61 1014.5
20260505040042 61 96 0.0 1.0 0.00 0.00 0.00 59 1014.5
20260505035541 62 96 0.0 1.0 0.00 0.00 0.00 58 1014.6
20260505034542 64 96 0.0 3.0 0.00 0.00 0.00 54 1014.6
20260505034041 63 96 0.0 3.0 0.00 0.00 0.00 54 1014.7
20260505033541 64 96 0.0 1.0 0.00 0.00 0.00 54 1014.7
20260505033042 64 96 0.0 1.0 0.00 0.00 0.00 53 1014.7
20260505032541 64 96 0.0 1.0 0.00 0.00 0.00 53 1014.8
20260505032043 64 96 0.0 2.0 0.00 0.00 0.00 53 1014.8
20260505031549 64 96 0.0 2.0 0.00 0.00 0.00 53 1014.8
20260505031041 64 96 0.0 2.0 0.00 0.00 0.00 53 1014.8
20260505030542 64 96 0.0 2.0 0.00 0.00 0.00 52 1014.8
20260505030042 64 96 0.0 0.0 0.00 0.00 0.00 52 1014.8
20260505025540 64 96 0.0 3.0 0.00 0.00 0.00 52 1014.9
20260505024543 65 96 2.0 4.0 0.00 0.00 0.00 51 1014.9
20260505024040 65 96 1.0 3.0 0.00 0.00 0.00 51 1014.9
20260505023543 65 96 1.0 3.0 0.00 0.00 0.00 51 1014.8
20260505023040 66 96 0.0 6.0 0.00 0.00 0.00 50 1015.0
20260505022540 66 96 3.0 6.0 0.00 0.00 0.00 49 1014.8
20260505022140 66 96 2.0 6.0 0.00 0.00 0.00 49 1014.9
20260505021540 66 96 2.0 4.0 0.00 0.00 0.00 49 1014.8
20260505021039 67 96 1.0 3.0 0.00 0.00 0.00 49 1014.8
20260505020540 67 96 0.0 6.0 0.00 0.00 0.00 48 1014.8
20260505020039 67 96 0.0 6.0 0.00 0.00 0.00 48 1014.6
20260505015539 67 96 1.0 6.0 0.00 0.00 0.00 48 1014.7
20260505014541 67 96 1.0 6.0 0.00 0.00 0.00 48 1014.6
20260505014042 67 96 3.0 6.0 0.00 0.00 0.00 48 1014.5
20260505013539 67 96 2.0 9.0 0.00 0.00 0.00 48 1014.4
20260505013057 67 96 4.0 9.0 0.00 0.00 0.00 48 1014.4
20260505012542 67 96 4.0 8.0 0.00 0.00 0.00 48 1014.4
20260505012040 67 96 2.0 6.0 0.00 0.00 0.00 49 1014.3
20260505011539 67 96 2.0 6.0 0.00 0.00 0.00 48 1014.2
20260505011039 67 96 1.0 6.0 0.00 0.00 0.00 48 1014.2
20260505010538 67 96 2.0 7.0 0.00 0.00 0.00 48 1014.2
20260505010038 68 96 3.0 8.0 0.00 0.00 0.00 48 1014.2
20260505005538 68 96 4.0 8.0 0.00 0.00 0.00 47 1014.2
20260505004542 68 96 2.0 8.0 0.00 0.00 0.00 46 1014.0
20260505004041 69 96 3.0 8.0 0.00 0.00 0.00 45 1013.9
20260505003543 69 96 4.0 9.0 0.00 0.00 0.00 45 1013.8
20260505003041 70 96 2.0 9.0 0.00 0.00 0.00 44 1013.8
20260505002541 70 96 6.0 10.0 0.00 0.00 0.00 43 1013.7
20260505002041 70 96 4.0 10.0 0.00 0.00 0.00 43 1013.9
20260505001540 70 96 6.0 11.0 0.00 0.00 0.00 43 1013.9
20260505001039 70 96 2.0 11.0 0.00 0.00 0.00 43 1013.9
20260505000539 70 96 4.0 9.0 0.00 0.00 0.00 43 1013.7
20260505000052 70 96 3.0 7.0 0.00 0.00 0.00 43 1013.7
20260504235539 70 96 3.0 10.0 0.00 0.00 0.00 43 1013.8
20260504234536 71 96 3.0 8.0 0.00 0.00 0.00 42 1013.6
20260504234035 71 96 2.0 8.0 0.00 0.00 0.00 42 1013.5
20260504233535 71 96 4.0 8.0 0.00 0.00 0.00 41 1013.5
20260504233038 71 96 4.0 8.0 0.00 0.00 0.00 41 1013.5
20260504232534 71 96 4.0 9.0 0.00 0.00 0.00 40 1013.4
20260504232035 72 96 3.0 10.0 0.00 0.00 0.00 40 1013.3
20260504231533 72 96 4.0 11.0 0.00 0.00 0.00 39 1013.3
20260504231034 72 96 6.0 11.0 0.00 0.00 0.00 39 1013.3
20260504230533 72 96 5.0 12.0 0.00 0.00 0.00 38 1013.3
20260504230033 73 96 5.0 14.0 0.00 0.00 0.00 38 1013.3
20260504225534 73 96 6.0 11.0 0.00 0.00 0.00 36 1013.3
20260504224533 73 96 4.0 15.0 0.00 0.00 0.00 37 1013.3
20260504224032 74 96 9.0 17.0 0.00 0.00 0.00 36 1013.2
20260504223532 74 96 8.0 17.0 0.00 0.00 0.00 36 1013.4
20260504223035 74 96 5.0 15.0 0.00 0.00 0.00 36 1013.3
20260504222533 74 96 8.0 17.0 0.00 0.00 0.00 35 1013.4
20260504222031 74 96 9.0 17.0 0.00 0.00 0.00 35 1013.4
20260504221531 74 96 9.0 19.0 0.00 0.00 0.00 34 1013.4
20260504221034 74 96 9.0 19.0 0.00 0.00 0.00 35 1013.4
20260504220532 74 95 12.0 18.0 0.00 0.00 0.00 35 1013.3
20260504220040 74 96 8.0 18.0 0.00 0.00 0.00 36 1013.4
20260504215532 74 96 11.0 19.0 0.00 0.00 0.00 36 1013.3
20260504214540 74 96 15.0 19.0 0.00 0.00 0.00 36 1013.3
20260504214032 75 95 12.0 18.0 0.00 0.00 0.00 35 1013.3
20260504213533 75 95 9.0 19.0 0.00 0.00 0.00 37 1013.3
20260504213034 75 95 13.0 23.0 0.00 0.00 0.00 36 1013.3
20260504212531 75 96 11.0 18.0 0.00 0.00 0.00 35 1013.3
20260504212033 76 96 11.0 18.0 0.00 0.00 0.00 35 1013.2
20260504211535 76 96 8.0 18.0 0.00 0.00 0.00 35 1013.2
20260504211031 76 96 11.0 18.0 0.00 0.00 0.00 36 1013.1
20260504210530 76 96 10.0 18.0 0.00 0.00 0.00 36 1013.1
20260504210030 76 96 8.0 19.0 0.00 0.00 0.00 35 1013.2
20260504205530 76 96 10.0 18.0 0.00 0.00 0.00 36 1013.2
20260504204530 76 96 10.0 18.0 0.00 0.00 0.00 36 1013.2
20260504204029 76 96 4.0 18.0 0.00 0.00 0.00 36 1013.2
20260504203532 76 96 8.0 14.0 0.00 0.00 0.00 36 1013.4
20260504203029 76 96 8.0 14.0 0.00 0.00 0.00 37 1013.4
20260504202528 76 96 8.0 15.0 0.00 0.00 0.00 37 1013.4
20260504202026 76 96 8.0 15.0 0.00 0.00 0.00 37 1013.4
20260504201526 76 96 7.0 15.0 0.00 0.00 0.00 36 1013.5
20260504201026 76 96 9.0 15.0 0.00 0.00 0.00 37 1013.5
20260504200525 76 96 8.0 16.0 0.00 0.00 0.00 36 1013.7
20260504200025 76 96 10.0 16.0 0.00 0.00 0.00 36 1013.7
20260504195523 76 96 10.0 16.0 0.00 0.00 0.00 37 1013.8
20260504194525 75 96 11.0 16.0 0.00 0.00 0.00 37 1014.0
20260504194022 75 96 7.0 15.0 0.00 0.00 0.00 37 1014.0
20260504193523 75 96 8.0 15.0 0.00 0.00 0.00 37 1014.1
20260504193024 75 96 9.0 14.0 0.00 0.00 0.00 37 1014.2
20260504192520 75 96 7.0 16.0 0.00 0.00 0.00 37 1014.3
20260504192022 75 96 7.0 16.0 0.00 0.00 0.00 37 1014.3
20260504191523 75 96 8.0 15.0 0.00 0.00 0.00 37 1014.5
20260504191019 75 96 10.0 15.0 0.00 0.00 0.00 37 1014.5
20260504190519 76 96 8.0 16.0 0.00 0.00 0.00 35 1014.5
20260504190017 76 96 4.0 16.0 0.00 0.00 0.00 35 1014.6
20260504185515 75 96 9.0 17.0 0.00 0.00 0.00 37 1014.8
20260504184519 74 96 8.0 15.0 0.00 0.00 0.00 37 1014.7
20260504184015 74 96 8.0 12.0 0.00 0.00 0.00 37 1014.9
20260504183516 75 96 5.0 15.0 0.00 0.00 0.00 37 1014.9
20260504183015 74 96 5.0 12.0 0.00 0.00 0.00 37 1015.0
20260504182512 74 96 6.0 12.0 0.00 0.00 0.00 38 1015.0
20260504182012 74 96 7.0 11.0 0.00 0.00 0.00 38 1015.1
20260504181517 74 96 6.0 12.0 0.00 0.00 0.00 38 1015.2
20260504181110 73 96 4.0 12.0 0.00 0.00 0.00 38 1015.3
20260504180511 73 96 6.0 12.0 0.00 0.00 0.00 38 1015.2
20260504180008 73 96 7.0 13.0 0.00 0.00 0.00 38 1015.4
20260504175507 72 96 7.0 13.0 0.00 0.00 0.00 38 1015.4
20260504174507 72 96 7.0 13.0 0.00 0.00 0.00 38 1015.5
20260504174007 72 96 6.0 14.0 0.00 0.00 0.00 36 1015.6